EN

Hourly Weather Absam

Today, 4 December, Friday

Time Temperature Precipitation Wind Pressure Humidity
00:00 -1°C° 0 mm 4 mps 676 mmHg 77%
01:00 -1°C° 0 mm 4 mps 676 mmHg 75%
02:00 -1°C° 0 mm 4 mps 676 mmHg 74%
03:00 -1°C° 0 mm 4 mps 675 mmHg 73%
04:00 -1°C° 0 mm 4 mps 674 mmHg 73%
05:00 -1°C° 0 mm 4 mps 674 mmHg 72%
06:00 -1°C° 0 mm 4 mps 674 mmHg 71%
07:00 -1°C° 0 mm 5 mps 674 mmHg 72%
08:00 0°C° 0 mm 4 mps 674 mmHg 70%
09:00 +1°C° 0 mm 4 mps 674 mmHg 68%
10:00 +1°C° 0 mm 4 mps 674 mmHg 66%
11:00 +3°C° 0 mm 4 mps 674 mmHg 64%
12:00 +4°C° 0 mm 4 mps 673 mmHg 62%
13:00 +4°C° 0 mm 4 mps 673 mmHg 60%
14:00 +4°C° 0.1 mm 4 mps 673 mmHg 63%
15:00 +3°C° 0.1 mm 4 mps 672 mmHg 67%
16:00 +1°C° 0.1 mm 4 mps 672 mmHg 70%
17:00 +1°C° 0.4 mm 4 mps 672 mmHg 74%
18:00 +1°C° 0.4 mm 3 mps 672 mmHg 79%
19:00 +1°C° 0.4 mm 3 mps 672 mmHg 83%
20:00 +1°C° 1 mm 3 mps 672 mmHg 85%
21:00 +1°C° 1 mm 3 mps 672 mmHg 88%
22:00 +1°C° 1 mm 3 mps 672 mmHg 90%
23:00 +1°C° 1.3 mm 3 mps 672 mmHg 91%

Tomorrow, 5 December, Saturday

Time Temperature Precipitation Wind Pressure Humidity
00:00 +1°C° 1.3 mm 3 mps 673 mmHg 91%
01:00 +1°C° 1.3 mm 3 mps 673 mmHg 92%
02:00 +1°C° 1.1 mm 3 mps 673 mmHg 92%
03:00 +3°C° 1.1 mm 2 mps 673 mmHg 93%
04:00 +3°C° 1.1 mm 2 mps 673 mmHg 93%
05:00 +2°C° 1 mm 2 mps 674 mmHg 93%
06:00 +2°C° 1 mm 2 mps 674 mmHg 93%
07:00 +2°C° 1 mm 2 mps 674 mmHg 93%
08:00 +2°C° 1.2 mm 2 mps 675 mmHg 94%
09:00 +4°C° 1.2 mm 1 mps 675 mmHg 94%
10:00 +4°C° 1.2 mm 1 mps 676 mmHg 95%
11:00 +5°C° 2.2 mm 1 mps 676 mmHg 95%
12:00 +5°C° 2.2 mm 1 mps 676 mmHg 96%
13:00 +4°C° 2.2 mm 2 mps 676 mmHg 97%
14:00 +3°C° 2.4 mm 2 mps 676 mmHg 97%
15:00 +4°C° 2.4 mm 1 mps 676 mmHg 97%
16:00 +4°C° 2.4 mm 1 mps 676 mmHg 97%
17:00 +4°C° 2.8 mm 1 mps 676 mmHg 97%
18:00 +4°C° 2.8 mm 1 mps 676 mmHg 97%
19:00 +3°C° 2.8 mm 1 mps 676 mmHg 98%
20:00 +4°C° 2.1 mm 1 mps 676 mmHg 97%
21:00 +4°C° 2.1 mm 1 mps 676 mmHg 97%
22:00 +3°C° 2.1 mm 2 mps 676 mmHg 97%
23:00 +4°C° 2.1 mm 2 mps 676 mmHg 97%

Day after tomorrow, 6 December, Sunday

Time Temperature Precipitation Wind Pressure Humidity
00:00 +4°C° 2.1 mm 2 mps 676 mmHg 96%
01:00 +4°C° 2.1 mm 2 mps 676 mmHg 96%
02:00 +4°C° 2.1 mm 2 mps 676 mmHg 96%
03:00 +4°C° 2.1 mm 2 mps 676 mmHg 96%
04:00 +4°C° 2.1 mm 2 mps 676 mmHg 96%
05:00 +5°C° 1.1 mm 2 mps 676 mmHg 95%
06:00 +5°C° 1.1 mm 2 mps 676 mmHg 94%
07:00 +4°C° 1.1 mm 3 mps 676 mmHg 93%
08:00 +5°C° 0.8 mm 2 mps 676 mmHg 95%
09:00 +5°C° 0.8 mm 2 mps 676 mmHg 97%
10:00 +6°C° 0.8 mm 1 mps 675 mmHg 98%
11:00 +6°C° 1.6 mm 1 mps 675 mmHg 98%
12:00 +6°C° 1.6 mm 1 mps 674 mmHg 98%
13:00 +6°C° 1.6 mm 1 mps 674 mmHg 99%
14:00 +6°C° 1.3 mm 1 mps 673 mmHg 99%
15:00 +5°C° 1.3 mm 2 mps 673 mmHg 99%
16:00 +5°C° 1.3 mm 2 mps 672 mmHg 99%
17:00 +4°C° 1 mm 2 mps 672 mmHg 98%
18:00 +5°C° 1 mm 1 mps 672 mmHg 97%
19:00 +5°C° 1 mm 1 mps 672 mmHg 96%
20:00 +5°C° 0.8 mm 1 mps 672 mmHg 97%
21:00 +5°C° 0.8 mm 1 mps 672 mmHg 97%
22:00 +5°C° 0.8 mm 1 mps 672 mmHg 97%
23:00 +4°C° 0.2 mm 1 mps 673 mmHg 97%

7 December, Monday

Time Temperature Precipitation Wind Pressure Humidity
00:00 +4°C° 0.2 mm 1 mps 673 mmHg 96%
01:00 +4°C° 0.2 mm 1 mps 673 mmHg 96%
02:00 +3°C° 0.5 mm 1 mps 673 mmHg 96%
03:00 +3°C° 0.5 mm 1 mps 673 mmHg 96%
04:00 +3°C° 0.5 mm 1 mps 674 mmHg 96%
05:00 +2°C° 0.5 mm 1 mps 674 mmHg 95%
06:00 +1°C° 0.5 mm 2 mps 675 mmHg 94%
07:00 -1°C° 0.5 mm 2 mps 675 mmHg 92%
08:00 +1°C° 0 mm 2 mps 676 mmHg 92%
09:00 +2°C° 0 mm 2 mps 677 mmHg 91%
10:00 +2°C° 0 mm 2 mps 677 mmHg 90%
11:00 +3°C° 0.1 mm 2 mps 677 mmHg 91%
12:00 +3°C° 0.1 mm 2 mps 678 mmHg 91%
13:00 +4°C° 0.1 mm 2 mps 678 mmHg 92%
14:00 +3°C° 0.2 mm 2 mps 678 mmHg 93%
15:00 +3°C° 0.2 mm 1 mps 678 mmHg 93%
16:00 +3°C° 0.2 mm 1 mps 678 mmHg 94%
17:00 +2°C° 0 mm 1 mps 679 mmHg 93%
18:00 -1°C° 0 mm 2 mps 679 mmHg 92%
19:00 -2°C° 0 mm 2 mps 680 mmHg 91%
20:00 -1°C° 0 mm 1 mps 680 mmHg 91%
21:00 -1°C° 0 mm 1 mps 680 mmHg 91%
22:00 -2°C° 0 mm 1 mps 680 mmHg 91%
23:00 -2°C° 0 mm 1 mps 680 mmHg 89%

8 December, Tuesday

Time Temperature Precipitation Wind Pressure Humidity
00:00 -2°C° 0 mm 1 mps 679 mmHg 88%
01:00 -3°C° 0 mm 1 mps 679 mmHg 86%
02:00 -3°C° 0 mm 1 mps 679 mmHg 85%
03:00 -3°C° 0 mm 1 mps 679 mmHg 84%
04:00 -3°C° 0 mm 1 mps 679 mmHg 83%
05:00 -3°C° 0 mm 1 mps 678 mmHg 82%
06:00 -2°C° 0 mm 1 mps 678 mmHg 81%
07:00 -2°C° 0 mm 1 mps 678 mmHg 81%
08:00 -1°C° 0.1 mm 1 mps 678 mmHg 83%
09:00 -1°C° 0.1 mm 0 mps 678 mmHg 85%
10:00 0°C° 0.1 mm 0 mps 678 mmHg 87%
11:00 +1°C° 0.2 mm 0 mps 678 mmHg 87%
12:00 +1°C° 0.2 mm 0 mps 678 mmHg 88%
13:00 +2°C° 0.2 mm 0 mps 678 mmHg 89%
14:00 +1°C° 0.2 mm 0 mps 677 mmHg 91%
15:00 +1°C° 0.2 mm 0 mps 677 mmHg 93%
16:00 0°C° 0.2 mm 0 mps 677 mmHg 95%
17:00 0°C° 0 mm 1 mps 677 mmHg 95%
18:00 0°C° 0 mm 1 mps 678 mmHg 94%
19:00 -1°C° 0 mm 1 mps 678 mmHg 93%
20:00 -1°C° 0 mm 1 mps 678 mmHg 91%
21:00 -4°C° 0 mm 2 mps 678 mmHg 89%
22:00 -4°C° 0 mm 2 mps 678 mmHg 88%
23:00 -5°C° 0 mm 2 mps 678 mmHg 87%

9 December, Wednesday

Time Temperature Precipitation Wind Pressure Humidity
00:00 -5°C° 0 mm 2 mps 678 mmHg 86%
01:00 -6°C° 0 mm 2 mps 678 mmHg 85%
02:00 -6°C° 0 mm 2 mps 679 mmHg 84%
03:00 -6°C° 0 mm 2 mps 679 mmHg 83%
04:00 -6°C° 0 mm 2 mps 679 mmHg 82%
05:00 -7°C° 0 mm 2 mps 679 mmHg 79%
06:00 -7°C° 0 mm 2 mps 679 mmHg 77%
07:00 -6°C° 0 mm 1 mps 679 mmHg 74%
08:00 -3°C° 0 mm 1 mps 680 mmHg 74%
09:00 -2°C° 0 mm 1 mps 680 mmHg 73%
10:00 0°C° 0 mm 1 mps 680 mmHg 73%
11:00 +1°C° 0 mm 1 mps 680 mmHg 72%
12:00 +2°C° 0 mm 1 mps 680 mmHg 72%
13:00 +2°C° 0 mm 0 mps 680 mmHg 72%
14:00 +1°C° 0 mm 1 mps 680 mmHg 77%
15:00 0°C° 0 mm 1 mps 679 mmHg 83%
16:00 -2°C° 0 mm 1 mps 679 mmHg 88%
17:00 -2°C° 0 mm 1 mps 679 mmHg 88%
18:00 -3°C° 0 mm 1 mps 680 mmHg 88%
19:00 -4°C° 0 mm 1 mps 680 mmHg 88%
20:00 -4°C° 0 mm 1 mps 680 mmHg 89%
21:00 -3°C° 0 mm 1 mps 680 mmHg 90%
22:00 -3°C° 0 mm 1 mps 681 mmHg 91%
23:00 -3°C° 0 mm 1 mps 681 mmHg 92%
Show more